contact: severine.martini@mio.osupytheas.fr, dominique.lefevre@mio.osupytheas.fr
Project:EMSO Ligure-ouest http://www.emso-fr.org/EMSO-France
Sensor Microcat Sea-Bird SBE37 SMP,  Serial 57510 
DOI : "https://doi.org/10.17882/97948" 
Title:EMSO Ligure Ouest : Data Bathybot capteur Microcat - deploiement 2023-04-28
Datetime,Profondeur,Latitude,Longitude,Temperature,Conductivite,Pression,Salinite
time,m,degree_north,degree_east,degree_C,S/m,db,PSU 
2023-12-31T00:00:50,2420,42.8014,5.9826,13.2976,4.59893,2453.649,38.4857
2023-12-31T00:03:49,2420,42.8014,5.9826,13.2978,4.59894,2453.627,38.4856
2023-12-31T00:06:49,2420,42.8014,5.9826,13.2976,4.59894,2453.649,38.4858
2023-12-31T00:09:49,2420,42.8014,5.9826,13.2978,4.59893,2453.649,38.4856
2023-12-31T00:12:49,2420,42.8014,5.9826,13.2975,4.59894,2453.627,38.4859
2023-12-31T00:15:49,2420,42.8014,5.9826,13.2978,4.59894,2453.604,38.4856
2023-12-31T00:18:50,2420,42.8014,5.9826,13.2979,4.59894,2453.627,38.4856
2023-12-31T00:21:49,2420,42.8014,5.9826,13.2975,4.59894,2453.641,38.4859
2023-12-31T00:24:49,2420,42.8014,5.9826,13.2977,4.59894,2453.649,38.4858
2023-12-31T00:27:49,2420,42.8014,5.9826,13.2982,4.59892,2453.604,38.4852
2023-12-31T00:30:50,2420,42.8014,5.9826,13.2978,4.59892,2453.604,38.4855
2023-12-31T00:33:49,2420,42.8014,5.9826,13.2973,4.59894,2453.672,38.4861
2023-12-31T00:36:49,2420,42.8014,5.9826,13.2979,4.59893,2453.604,38.4854
2023-12-31T00:39:49,2420,42.8014,5.9826,13.2979,4.59892,2453.604,38.4854
2023-12-31T00:42:49,2420,42.8014,5.9826,13.2977,4.59895,2453.612,38.4859
2023-12-31T00:45:49,2420,42.8014,5.9826,13.2976,4.59894,2453.604,38.4859
2023-12-31T00:48:50,2420,42.8014,5.9826,13.2978,4.59894,2453.604,38.4857
2023-12-31T00:51:49,2420,42.8014,5.9826,13.2980,4.59892,2453.627,38.4853
2023-12-31T00:54:49,2420,42.8014,5.9826,13.2979,4.59892,2453.604,38.4854
2023-12-31T00:57:49,2420,42.8014,5.9826,13.2980,4.59892,2453.604,38.4853
2023-12-31T01:00:49,2420,42.8014,5.9826,13.2975,4.59892,2453.604,38.4858
2023-12-31T01:03:49,2420,42.8014,5.9826,13.2978,4.59892,2453.604,38.4855
2023-12-31T01:06:50,2420,42.8014,5.9826,13.2977,4.59892,2453.627,38.4856
2023-12-31T01:09:49,2420,42.8014,5.9826,13.2975,4.59892,2453.582,38.4858
2023-12-31T01:12:49,2420,42.8014,5.9826,13.2978,4.59891,2453.604,38.4854
2023-12-31T01:15:49,2420,42.8014,5.9826,13.2975,4.59892,2453.596,38.4858
2023-12-31T01:18:49,2420,42.8014,5.9826,13.2977,4.59891,2453.604,38.4856
2023-12-31T01:21:49,2420,42.8014,5.9826,13.2979,4.59891,2453.604,38.4853
2023-12-31T01:24:49,2420,42.8014,5.9826,13.2979,4.59893,2453.582,38.4855
2023-12-31T01:27:49,2420,42.8014,5.9826,13.2978,4.59894,2453.590,38.4857
2023-12-31T01:30:49,2420,42.8014,5.9826,13.2979,4.59892,2453.604,38.4854
2023-12-31T01:33:49,2420,42.8014,5.9826,13.2979,4.59892,2453.582,38.4854
2023-12-31T01:36:49,2420,42.8014,5.9826,13.2979,4.59894,2453.604,38.4856
2023-12-31T01:39:49,2420,42.8014,5.9826,13.2979,4.59894,2453.604,38.4856
2023-12-31T01:42:49,2420,42.8014,5.9826,13.2976,4.59892,2453.604,38.4857
2023-12-31T01:45:49,2420,42.8014,5.9826,13.2982,4.59894,2453.604,38.4853
2023-12-31T01:48:49,2420,42.8014,5.9826,13.2973,4.59891,2453.567,38.4859
2023-12-31T01:51:49,2420,42.8014,5.9826,13.2980,4.59891,2453.582,38.4852
2023-12-31T01:54:49,2420,42.8014,5.9826,13.2975,4.59892,2453.604,38.4858
2023-12-31T01:57:50,2420,42.8014,5.9826,13.2979,4.59893,2453.559,38.4855
2023-12-31T02:00:49,2420,42.8014,5.9826,13.2976,4.59892,2453.590,38.4857
2023-12-31T02:03:49,2420,42.8014,5.9826,13.2975,4.59893,2453.604,38.4858
2023-12-31T02:06:49,2420,42.8014,5.9826,13.2978,4.59892,2453.604,38.4855
2023-12-31T02:09:49,2420,42.8014,5.9826,13.2975,4.59894,2453.559,38.4860
2023-12-31T02:12:49,2420,42.8014,5.9826,13.2976,4.59892,2453.582,38.4857
2023-12-31T02:15:50,2420,42.8014,5.9826,13.2976,4.59894,2453.567,38.4858
2023-12-31T02:18:49,2420,42.8014,5.9826,13.2973,4.59894,2453.559,38.4861
2023-12-31T02:21:49,2420,42.8014,5.9826,13.2976,4.59893,2453.559,38.4858
2023-12-31T02:24:49,2420,42.8014,5.9826,13.2976,4.59896,2453.582,38.4860
2023-12-31T02:27:49,2420,42.8014,5.9826,13.2978,4.59895,2453.567,38.4858
2023-12-31T02:30:49,2420,42.8014,5.9826,13.2976,4.59892,2453.582,38.4857
2023-12-31T02:33:49,2420,42.8014,5.9826,13.2978,4.59894,2453.582,38.4857
2023-12-31T02:36:49,2420,42.8014,5.9826,13.2981,4.59894,2453.582,38.4854
2023-12-31T02:39:49,2420,42.8014,5.9826,13.2977,4.59896,2453.559,38.4860
2023-12-31T02:42:49,2420,42.8014,5.9826,13.2981,4.59900,2453.582,38.4859
2023-12-31T02:45:49,2420,42.8014,5.9826,13.2979,4.59898,2453.559,38.4860
2023-12-31T02:48:49,2420,42.8014,5.9826,13.2983,4.59900,2453.582,38.4857
2023-12-31T02:51:49,2420,42.8014,5.9826,13.2986,4.59897,2453.567,38.4852
2023-12-31T02:54:50,2420,42.8014,5.9826,13.2979,4.59903,2453.559,38.4864
2023-12-31T02:57:49,2420,42.8014,5.9826,13.2984,4.59898,2453.559,38.4855
2023-12-31T03:00:49,2420,42.8014,5.9826,13.2984,4.59899,2453.604,38.4855
2023-12-31T03:03:49,2420,42.8014,5.9826,13.2984,4.59904,2453.582,38.4860
2023-12-31T03:06:49,2420,42.8014,5.9826,13.2983,4.59897,2453.582,38.4855
2023-12-31T03:09:49,2420,42.8014,5.9826,13.2985,4.59898,2453.544,38.4854
2023-12-31T03:12:49,2420,42.8014,5.9826,13.2975,4.59898,2453.559,38.4864
2023-12-31T03:15:49,2420,42.8014,5.9826,13.2982,4.59900,2453.582,38.4859
2023-12-31T03:18:49,2420,42.8014,5.9826,13.2983,4.59897,2453.537,38.4855
2023-12-31T03:21:49,2420,42.8014,5.9826,13.2982,4.59903,2453.604,38.4862
2023-12-31T03:24:49,2420,42.8014,5.9826,13.2980,4.59899,2453.559,38.4859
2023-12-31T03:27:49,2420,42.8014,5.9826,13.2985,4.59902,2453.582,38.4857
2023-12-31T03:30:49,2420,42.8014,5.9826,13.2982,4.59899,2453.604,38.4858
2023-12-31T03:33:49,2420,42.8014,5.9826,13.2983,4.59900,2453.582,38.4857
2023-12-31T03:36:49,2420,42.8014,5.9826,13.2983,4.59902,2453.582,38.4859
2023-12-31T03:39:49,2420,42.8014,5.9826,13.2981,4.59898,2453.544,38.4858
2023-12-31T03:42:49,2420,42.8014,5.9826,13.2982,4.59903,2453.604,38.4861
2023-12-31T03:45:49,2420,42.8014,5.9826,13.2985,4.59906,2453.567,38.4861
2023-12-31T03:48:49,2420,42.8014,5.9826,13.2985,4.59906,2453.604,38.4861
2023-12-31T03:51:49,2420,42.8014,5.9826,13.2980,4.59903,2453.537,38.4863
2023-12-31T03:54:49,2420,42.8014,5.9826,13.2977,4.59908,2453.582,38.4871
2023-12-31T03:57:49,2420,42.8014,5.9826,13.2982,4.59898,2453.582,38.4857
2023-12-31T04:00:49,2420,42.8014,5.9826,13.2980,4.59903,2453.559,38.4863
2023-12-31T04:03:49,2420,42.8014,5.9826,13.2981,4.59897,2453.604,38.4857
2023-12-31T04:06:49,2420,42.8014,5.9826,13.2979,4.59899,2453.559,38.4860
2023-12-31T04:09:49,2420,42.8014,5.9826,13.2976,4.59898,2453.537,38.4863
2023-12-31T04:12:49,2420,42.8014,5.9826,13.2982,4.59900,2453.559,38.4858
2023-12-31T04:15:49,2420,42.8014,5.9826,13.2975,4.59909,2453.582,38.4874
2023-12-31T04:18:49,2420,42.8014,5.9826,13.2982,4.59903,2453.604,38.4861
2023-12-31T04:21:49,2420,42.8014,5.9826,13.2979,4.59899,2453.582,38.4860
2023-12-31T04:24:49,2420,42.8014,5.9826,13.2982,4.59903,2453.567,38.4861
2023-12-31T04:27:49,2420,42.8014,5.9826,13.2986,4.59899,2453.559,38.4854
2023-12-31T04:30:50,2420,42.8014,5.9826,13.2981,4.59900,2453.559,38.4859
2023-12-31T04:33:49,2420,42.8014,5.9826,13.2988,4.59904,2453.567,38.4857
2023-12-31T04:36:49,2420,42.8014,5.9826,13.2981,4.59908,2453.596,38.4867
2023-12-31T04:39:49,2420,42.8014,5.9826,13.2984,4.59907,2453.559,38.4863
2023-12-31T04:42:49,2420,42.8014,5.9826,13.2982,4.59901,2453.582,38.4860
2023-12-31T04:45:49,2420,42.8014,5.9826,13.2978,4.59902,2453.582,38.4864
2023-12-31T04:48:50,2420,42.8014,5.9826,13.2978,4.59908,2453.559,38.4870
2023-12-31T04:51:49,2420,42.8014,5.9826,13.2981,4.59907,2453.582,38.4866
2023-12-31T04:54:49,2420,42.8014,5.9826,13.2984,4.59903,2453.582,38.4859
2023-12-31T04:57:49,2420,42.8014,5.9826,13.2985,4.59906,2453.582,38.4861
2023-12-31T05:00:50,2420,42.8014,5.9826,13.2982,4.59907,2453.596,38.4865
2023-12-31T05:03:49,2420,42.8014,5.9826,13.2985,4.59904,2453.582,38.4860
2023-12-31T05:06:50,2420,42.8014,5.9826,13.2979,4.59914,2453.582,38.4875
2023-12-31T05:09:49,2420,42.8014,5.9826,13.2983,4.59903,2453.596,38.4860
2023-12-31T05:12:49,2420,42.8014,5.9826,13.2984,4.59901,2453.582,38.4857
2023-12-31T05:15:50,2420,42.8014,5.9826,13.2983,4.59902,2453.627,38.4859
2023-12-31T05:18:49,2420,42.8014,5.9826,13.2989,4.59915,2453.590,38.4866
2023-12-31T05:21:49,2420,42.8014,5.9826,13.2984,4.59902,2453.582,38.4858
2023-12-31T05:24:50,2420,42.8014,5.9826,13.2984,4.59899,2453.604,38.4855
2023-12-31T05:27:49,2420,42.8014,5.9826,13.2982,4.59904,2453.582,38.4862
2023-12-31T05:30:49,2420,42.8014,5.9826,13.2980,4.59926,2453.604,38.4885
2023-12-31T05:33:49,2420,42.8014,5.9826,13.2983,4.59901,2453.604,38.4858
2023-12-31T05:36:49,2420,42.8014,5.9826,13.2980,4.59905,2453.604,38.4865
2023-12-31T05:39:50,2420,42.8014,5.9826,13.2982,4.59899,2453.604,38.4858
2023-12-31T05:42:49,2420,42.8014,5.9826,13.2982,4.59901,2453.604,38.4859
2023-12-31T05:45:49,2420,42.8014,5.9826,13.2983,4.59906,2453.582,38.4863
2023-12-31T05:48:50,2420,42.8014,5.9826,13.2979,4.59905,2453.619,38.4866
2023-12-31T05:51:49,2420,42.8014,5.9826,13.2980,4.59898,2453.641,38.4858
2023-12-31T05:54:49,2420,42.8014,5.9826,13.2975,4.59900,2453.635,38.4865
2023-12-31T05:57:49,2420,42.8014,5.9826,13.2978,4.59900,2453.627,38.4863
2023-12-31T06:00:49,2420,42.8014,5.9826,13.2982,4.59900,2453.649,38.4858
2023-12-31T06:03:49,2420,42.8014,5.9826,13.2985,4.59902,2453.627,38.4857
2023-12-31T06:06:49,2420,42.8014,5.9826,13.2982,4.59917,2453.641,38.4874
2023-12-31T06:09:49,2420,42.8014,5.9826,13.2979,4.59901,2453.627,38.4862
2023-12-31T06:12:49,2420,42.8014,5.9826,13.2984,4.59903,2453.649,38.4859
2023-12-31T06:15:49,2420,42.8014,5.9826,13.2985,4.59906,2453.649,38.4861
2023-12-31T06:18:49,2420,42.8014,5.9826,13.2980,4.59901,2453.627,38.4861
2023-12-31T06:21:49,2420,42.8014,5.9826,13.2982,4.59913,2453.657,38.4870
2023-12-31T06:24:49,2420,42.8014,5.9826,13.2977,4.59900,2453.649,38.4863
2023-12-31T06:27:49,2420,42.8014,5.9826,13.2978,4.59898,2453.627,38.4861
2023-12-31T06:30:49,2420,42.8014,5.9826,13.2979,4.59909,2453.635,38.4870
2023-12-31T06:33:50,2420,42.8014,5.9826,13.2979,4.59900,2453.672,38.4861
2023-12-31T06:36:49,2420,42.8014,5.9826,13.2981,4.59899,2453.641,38.4858
2023-12-31T06:39:49,2420,42.8014,5.9826,13.2985,4.59901,2453.709,38.4856
2023-12-31T06:42:49,2420,42.8014,5.9826,13.2985,4.59911,2453.672,38.4866
2023-12-31T06:45:49,2420,42.8014,5.9826,13.2974,4.59900,2453.649,38.4867
2023-12-31T06:48:49,2420,42.8014,5.9826,13.2980,4.59903,2453.672,38.4863
2023-12-31T06:51:49,2420,42.8014,5.9826,13.2982,4.59926,2453.672,38.4883
2023-12-31T06:54:49,2420,42.8014,5.9826,13.2982,4.59906,2453.672,38.4864
2023-12-31T06:57:49,2420,42.8014,5.9826,13.2983,4.59909,2453.657,38.4865
2023-12-31T07:00:49,2420,42.8014,5.9826,13.2982,4.59907,2453.672,38.4865
2023-12-31T07:03:49,2420,42.8014,5.9826,13.2978,4.59905,2453.717,38.4867
2023-12-31T07:06:49,2420,42.8014,5.9826,13.2980,4.59903,2453.717,38.4862
2023-12-31T07:09:50,2420,42.8014,5.9826,13.2983,4.59900,2453.649,38.4857
2023-12-31T07:12:49,2420,42.8014,5.9826,13.2979,4.59909,2453.695,38.4869
2023-12-31T07:15:49,2420,42.8014,5.9826,13.2978,4.59903,2453.717,38.4864
2023-12-31T07:18:49,2420,42.8014,5.9826,13.2980,4.59900,2453.717,38.4860
2023-12-31T07:21:49,2420,42.8014,5.9826,13.2979,4.59897,2453.695,38.4859
2023-12-31T07:24:49,2420,42.8014,5.9826,13.2977,4.59906,2453.695,38.4869
2023-12-31T07:27:50,2420,42.8014,5.9826,13.2980,4.59912,2453.695,38.4871
2023-12-31T07:30:49,2420,42.8014,5.9826,13.2983,4.59910,2453.717,38.4866
2023-12-31T07:33:49,2420,42.8014,5.9826,13.2982,4.59902,2453.754,38.4860
2023-12-31T07:36:49,2420,42.8014,5.9826,13.2983,4.59904,2453.717,38.4861
2023-12-31T07:39:49,2420,42.8014,5.9826,13.2978,4.59908,2453.717,38.4869
2023-12-31T07:42:49,2420,42.8014,5.9826,13.2983,4.59911,2453.740,38.4867
2023-12-31T07:45:49,2420,42.8014,5.9826,13.2982,4.59908,2453.717,38.4865
2023-12-31T07:48:49,2420,42.8014,5.9826,13.2982,4.59903,2453.740,38.4861
2023-12-31T07:51:49,2420,42.8014,5.9826,13.2979,4.59900,2453.762,38.4861
2023-12-31T07:54:49,2420,42.8014,5.9826,13.2977,4.59905,2453.732,38.4868
2023-12-31T07:57:49,2420,42.8014,5.9826,13.2980,4.59902,2453.717,38.4862
2023-12-31T08:00:49,2420,42.8014,5.9826,13.2978,4.59899,2453.732,38.4861
2023-12-31T08:03:50,2420,42.8014,5.9826,13.2981,4.59898,2453.717,38.4857
2023-12-31T08:06:49,2420,42.8014,5.9826,13.2977,4.59900,2453.740,38.4863
2023-12-31T08:09:49,2420,42.8014,5.9826,13.2980,4.59898,2453.740,38.4858
2023-12-31T08:12:49,2420,42.8014,5.9826,13.2978,4.59903,2453.740,38.4865
2023-12-31T08:15:49,2420,42.8014,5.9826,13.2979,4.59902,2453.740,38.4862
2023-12-31T08:18:49,2420,42.8014,5.9826,13.2979,4.59906,2453.762,38.4867
2023-12-31T08:21:49,2420,42.8014,5.9826,13.2979,4.59897,2453.740,38.4859
2023-12-31T08:24:49,2420,42.8014,5.9826,13.2983,4.59900,2453.740,38.4857
2023-12-31T08:27:49,2420,42.8014,5.9826,13.2981,4.59912,2453.740,38.4870
2023-12-31T08:30:49,2420,42.8014,5.9826,13.2982,4.59903,2453.770,38.4861
2023-12-31T08:33:49,2420,42.8014,5.9826,13.2979,4.59903,2453.785,38.4863
2023-12-31T08:36:49,2420,42.8014,5.9826,13.2978,4.59914,2453.785,38.4875
2023-12-31T08:39:50,2420,42.8014,5.9826,13.2979,4.59906,2453.785,38.4866
2023-12-31T08:42:49,2420,42.8014,5.9826,13.2982,4.59901,2453.762,38.4859
2023-12-31T08:45:49,2420,42.8014,5.9826,13.2979,4.59900,2453.762,38.4860
2023-12-31T08:48:49,2420,42.8014,5.9826,13.2980,4.59923,2453.800,38.4882
2023-12-31T08:51:49,2420,42.8014,5.9826,13.2978,4.59908,2453.785,38.4869
2023-12-31T08:54:49,2420,42.8014,5.9826,13.2979,4.59907,2453.762,38.4868
2023-12-31T08:57:49,2420,42.8014,5.9826,13.2982,4.59905,2453.785,38.4863
2023-12-31T09:00:49,2420,42.8014,5.9826,13.2984,4.59926,2453.770,38.4881
2023-12-31T09:03:49,2420,42.8014,5.9826,13.2983,4.59919,2453.807,38.4874
2023-12-31T09:06:49,2420,42.8014,5.9826,13.2978,4.59904,2453.762,38.4866
2023-12-31T09:09:50,2420,42.8014,5.9826,13.2978,4.59900,2453.807,38.4862
2023-12-31T09:12:49,2420,42.8014,5.9826,13.2979,4.59907,2453.785,38.4867
2023-12-31T09:15:49,2420,42.8014,5.9826,13.2982,4.59902,2453.785,38.4860
2023-12-31T09:18:49,2420,42.8014,5.9826,13.2985,4.59922,2453.800,38.4875
2023-12-31T09:21:50,2420,42.8014,5.9826,13.2979,4.59909,2453.785,38.4868
2023-12-31T09:24:49,2420,42.8014,5.9826,13.2979,4.59909,2453.770,38.4869
2023-12-31T09:27:49,2420,42.8014,5.9826,13.2981,4.59906,2453.793,38.4865
2023-12-31T09:30:50,2420,42.8014,5.9826,13.2981,4.59904,2453.770,38.4863
2023-12-31T09:33:49,2420,42.8014,5.9826,13.2979,4.59910,2453.770,38.4870
2023-12-31T09:36:50,2420,42.8014,5.9826,13.2982,4.59900,2453.770,38.4859
2023-12-31T09:39:49,2420,42.8014,5.9826,13.2977,4.59906,2453.822,38.4868
2023-12-31T09:42:49,2420,42.8014,5.9826,13.2979,4.59906,2453.807,38.4865
2023-12-31T09:45:49,2420,42.8014,5.9826,13.2979,4.59927,2453.770,38.4886
2023-12-31T09:48:49,2420,42.8014,5.9826,13.2978,4.59902,2453.807,38.4863
2023-12-31T09:51:49,2420,42.8014,5.9826,13.2984,4.59902,2453.822,38.4857
2023-12-31T09:54:49,2420,42.8014,5.9826,13.2978,4.59916,2453.807,38.4876
2023-12-31T09:57:49,2420,42.8014,5.9826,13.2981,4.59911,2453.807,38.4869
2023-12-31T10:00:49,2420,42.8014,5.9826,13.2990,4.59909,2453.793,38.4858
2023-12-31T10:03:49,2420,42.8014,5.9826,13.2988,4.59907,2453.815,38.4859
2023-12-31T10:06:49,2420,42.8014,5.9826,13.2980,4.59907,2453.807,38.4866
2023-12-31T10:09:49,2420,42.8014,5.9826,13.2986,4.59899,2453.807,38.4853
2023-12-31T10:12:49,2420,42.8014,5.9826,13.2983,4.59901,2453.793,38.4858
2023-12-31T10:15:49,2420,42.8014,5.9826,13.2985,4.59904,2453.830,38.4859
2023-12-31T10:18:50,2420,42.8014,5.9826,13.2985,4.59901,2453.830,38.4856
2023-12-31T10:21:49,2420,42.8014,5.9826,13.2988,4.59901,2453.785,38.4852
2023-12-31T10:24:49,2420,42.8014,5.9826,13.2987,4.59898,2453.807,38.4851
2023-12-31T10:27:50,2420,42.8014,5.9826,13.2983,4.59909,2453.830,38.4865
2023-12-31T10:30:49,2420,42.8014,5.9826,13.2979,4.59900,2453.785,38.4861
2023-12-31T10:33:50,2420,42.8014,5.9826,13.2985,4.59902,2453.830,38.4856
2023-12-31T10:36:49,2420,42.8014,5.9826,13.2982,4.59905,2453.807,38.4862
2023-12-31T10:39:49,2420,42.8014,5.9826,13.2985,4.59904,2453.822,38.4858
2023-12-31T10:42:49,2420,42.8014,5.9826,13.2991,4.59909,2453.807,38.4857
2023-12-31T10:45:49,2420,42.8014,5.9826,13.2981,4.59905,2453.807,38.4863
2023-12-31T10:48:49,2420,42.8014,5.9826,13.2988,4.59900,2453.807,38.4852
2023-12-31T10:51:49,2420,42.8014,5.9826,13.2982,4.59897,2453.807,38.4856
2023-12-31T10:54:49,2420,42.8014,5.9826,13.2976,4.59907,2453.770,38.4870
2023-12-31T10:57:49,2420,42.8014,5.9826,13.2982,4.59908,2453.830,38.4865
2023-12-31T11:00:49,2420,42.8014,5.9826,13.2986,4.59900,2453.807,38.4854
2023-12-31T11:03:50,2420,42.8014,5.9826,13.2979,4.59902,2453.785,38.4862
2023-12-31T11:06:49,2420,42.8014,5.9826,13.2982,4.59903,2453.793,38.4860
2023-12-31T11:09:49,2420,42.8014,5.9826,13.2981,4.59897,2453.807,38.4856
2023-12-31T11:12:49,2420,42.8014,5.9826,13.2979,4.59897,2453.785,38.4858
2023-12-31T11:15:49,2420,42.8014,5.9826,13.2988,4.59897,2453.793,38.4849
2023-12-31T11:18:49,2420,42.8014,5.9826,13.2976,4.59911,2453.785,38.4874
2023-12-31T11:21:49,2420,42.8014,5.9826,13.2982,4.59903,2453.762,38.4861
2023-12-31T11:24:49,2420,42.8014,5.9826,13.2982,4.59904,2453.807,38.4862
2023-12-31T11:27:49,2420,42.8014,5.9826,13.2974,4.59902,2453.785,38.4867
2023-12-31T11:30:49,2420,42.8014,5.9826,13.2974,4.59905,2453.807,38.4870
2023-12-31T11:33:49,2420,42.8014,5.9826,13.2977,4.59900,2453.762,38.4863
2023-12-31T11:36:49,2420,42.8014,5.9826,13.2973,4.59900,2453.807,38.4867
2023-12-31T11:39:49,2420,42.8014,5.9826,13.2978,4.59909,2453.740,38.4870
2023-12-31T11:42:49,2420,42.8014,5.9826,13.2975,4.59899,2453.785,38.4863
2023-12-31T11:45:49,2420,42.8014,5.9826,13.2973,4.59906,2453.785,38.4872
2023-12-31T11:48:49,2420,42.8014,5.9826,13.2979,4.59900,2453.762,38.4861
2023-12-31T11:51:49,2420,42.8014,5.9826,13.2979,4.59899,2453.762,38.4860
2023-12-31T11:54:50,2420,42.8014,5.9826,13.2978,4.59903,2453.770,38.4865
2023-12-31T11:57:49,2420,42.8014,5.9826,13.2975,4.59897,2453.762,38.4862
2023-12-31T12:00:49,2420,42.8014,5.9826,13.2977,4.59900,2453.785,38.4863
2023-12-31T12:03:49,2420,42.8014,5.9826,13.2979,4.59900,2453.785,38.4861
2023-12-31T12:06:49,2420,42.8014,5.9826,13.2976,4.59899,2453.785,38.4863
2023-12-31T12:09:49,2420,42.8014,5.9826,13.2976,4.59899,2453.762,38.4863
2023-12-31T12:12:50,2420,42.8014,5.9826,13.2978,4.59897,2453.785,38.4859
2023-12-31T12:15:49,2420,42.8014,5.9826,13.2982,4.59899,2453.740,38.4857
2023-12-31T12:18:49,2420,42.8014,5.9826,13.2983,4.59903,2453.762,38.4859
2023-12-31T12:21:49,2420,42.8014,5.9826,13.2975,4.59896,2453.740,38.4861
2023-12-31T12:24:49,2420,42.8014,5.9826,13.2978,4.59899,2453.725,38.4861
2023-12-31T12:27:49,2420,42.8014,5.9826,13.2977,4.59904,2453.785,38.4867
2023-12-31T12:30:49,2420,42.8014,5.9826,13.2975,4.59901,2453.740,38.4866
2023-12-31T12:33:49,2420,42.8014,5.9826,13.2979,4.59903,2453.725,38.4864
2023-12-31T12:36:49,2420,42.8014,5.9826,13.2977,4.59900,2453.717,38.4863
2023-12-31T12:39:49,2420,42.8014,5.9826,13.2975,4.59898,2453.725,38.4864
2023-12-31T12:42:49,2420,42.8014,5.9826,13.2974,4.59900,2453.740,38.4866
2023-12-31T12:45:49,2420,42.8014,5.9826,13.2976,4.59899,2453.740,38.4863
2023-12-31T12:48:49,2420,42.8014,5.9826,13.2976,4.59898,2453.695,38.4862
2023-12-31T12:51:49,2420,42.8014,5.9826,13.2978,4.59900,2453.717,38.4861
2023-12-31T12:54:49,2420,42.8014,5.9826,13.2974,4.59898,2453.717,38.4864
2023-12-31T12:57:49,2420,42.8014,5.9826,13.2982,4.59897,2453.680,38.4855
2023-12-31T13:00:49,2420,42.8014,5.9826,13.2979,4.59901,2453.725,38.4862
2023-12-31T13:03:49,2420,42.8014,5.9826,13.2974,4.59899,2453.717,38.4865
2023-12-31T13:06:49,2420,42.8014,5.9826,13.2978,4.59900,2453.725,38.4861
2023-12-31T13:09:49,2420,42.8014,5.9826,13.2979,4.59903,2453.717,38.4864
2023-12-31T13:12:49,2420,42.8014,5.9826,13.2976,4.59900,2453.740,38.4863
2023-12-31T13:15:49,2420,42.8014,5.9826,13.2975,4.59900,2453.717,38.4864
2023-12-31T13:18:49,2420,42.8014,5.9826,13.2980,4.59901,2453.717,38.4861
2023-12-31T13:21:49,2420,42.8014,5.9826,13.2988,4.59902,2453.717,38.4854
2023-12-31T13:24:49,2420,42.8014,5.9826,13.2975,4.59900,2453.695,38.4865
2023-12-31T13:27:50,2420,42.8014,5.9826,13.2979,4.59904,2453.717,38.4865
2023-12-31T13:30:49,2420,42.8014,5.9826,13.2977,4.59901,2453.680,38.4864
2023-12-31T13:33:50,2420,42.8014,5.9826,13.2979,4.59898,2453.695,38.4859
2023-12-31T13:36:49,2420,42.8014,5.9826,13.2978,4.59897,2453.717,38.4859
2023-12-31T13:39:49,2420,42.8014,5.9826,13.2977,4.59899,2453.717,38.4862
2023-12-31T13:42:49,2420,42.8014,5.9826,13.2979,4.59904,2453.695,38.4865
2023-12-31T13:45:49,2420,42.8014,5.9826,13.2977,4.59901,2453.672,38.4864
2023-12-31T13:48:49,2420,42.8014,5.9826,13.2981,4.59898,2453.717,38.4857
2023-12-31T13:51:49,2420,42.8014,5.9826,13.2984,4.59901,2453.695,38.4857
2023-12-31T13:54:49,2420,42.8014,5.9826,13.2975,4.59906,2453.695,38.4870
2023-12-31T13:57:49,2420,42.8014,5.9826,13.2975,4.59898,2453.672,38.4864
2023-12-31T14:00:49,2420,42.8014,5.9826,13.2978,4.59897,2453.717,38.4860
2023-12-31T14:03:49,2420,42.8014,5.9826,13.2977,4.59897,2453.672,38.4861
2023-12-31T14:06:49,2420,42.8014,5.9826,13.2979,4.59902,2453.732,38.4863
2023-12-31T14:09:50,2420,42.8014,5.9826,13.2973,4.59897,2453.687,38.4864
2023-12-31T14:12:49,2420,42.8014,5.9826,13.2975,4.59900,2453.695,38.4864
2023-12-31T14:15:49,2420,42.8014,5.9826,13.2980,4.59897,2453.695,38.4857
2023-12-31T14:18:49,2420,42.8014,5.9826,13.2983,4.59897,2453.657,38.4854
2023-12-31T14:21:49,2420,42.8014,5.9826,13.2975,4.59897,2453.695,38.4862
2023-12-31T14:24:49,2420,42.8014,5.9826,13.2974,4.59895,2453.680,38.4862
2023-12-31T14:27:49,2420,42.8014,5.9826,13.2978,4.59898,2453.672,38.4861
2023-12-31T14:30:49,2420,42.8014,5.9826,13.2973,4.59897,2453.709,38.4864
2023-12-31T14:33:49,2420,42.8014,5.9826,13.2977,4.59897,2453.672,38.4860
2023-12-31T14:36:50,2420,42.8014,5.9826,13.2979,4.59900,2453.672,38.4861
2023-12-31T14:39:49,2420,42.8014,5.9826,13.2975,4.59900,2453.687,38.4866
2023-12-31T14:42:49,2420,42.8014,5.9826,13.2978,4.59901,2453.672,38.4863
2023-12-31T14:45:50,2420,42.8014,5.9826,13.2976,4.59897,2453.672,38.4861
2023-12-31T14:48:49,2420,42.8014,5.9826,13.2976,4.59899,2453.672,38.4863
2023-12-31T14:51:49,2420,42.8014,5.9826,13.2974,4.59894,2453.672,38.4861
2023-12-31T14:54:50,2420,42.8014,5.9826,13.2979,4.59902,2453.664,38.4863
2023-12-31T14:57:49,2420,42.8014,5.9826,13.2978,4.59895,2453.672,38.4858
2023-12-31T15:00:49,2420,42.8014,5.9826,13.2976,4.59898,2453.672,38.4862
2023-12-31T15:03:49,2420,42.8014,5.9826,13.2973,4.59900,2453.649,38.4867
2023-12-31T15:06:49,2420,42.8014,5.9826,13.2975,4.59900,2453.672,38.4865
2023-12-31T15:09:49,2420,42.8014,5.9826,13.2977,4.59897,2453.664,38.4860
2023-12-31T15:12:49,2420,42.8014,5.9826,13.2975,4.59897,2453.635,38.4863
2023-12-31T15:15:49,2420,42.8014,5.9826,13.2975,4.59897,2453.649,38.4863
2023-12-31T15:18:49,2420,42.8014,5.9826,13.2979,4.59904,2453.672,38.4865
2023-12-31T15:21:49,2420,42.8014,5.9826,13.2974,4.59894,2453.649,38.4861
2023-12-31T15:24:49,2420,42.8014,5.9826,13.2976,4.59898,2453.649,38.4862
2023-12-31T15:27:49,2420,42.8014,5.9826,13.2975,4.59899,2453.635,38.4864
2023-12-31T15:30:49,2420,42.8014,5.9826,13.2979,4.59899,2453.649,38.4860
2023-12-31T15:33:50,2420,42.8014,5.9826,13.2978,4.59897,2453.649,38.4859
2023-12-31T15:36:49,2420,42.8014,5.9826,13.2975,4.59898,2453.672,38.4864
2023-12-31T15:39:49,2420,42.8014,5.9826,13.2975,4.59898,2453.649,38.4863
2023-12-31T15:42:50,2420,42.8014,5.9826,13.2976,4.59897,2453.627,38.4861
2023-12-31T15:45:49,2420,42.8014,5.9826,13.2976,4.59900,2453.612,38.4864
2023-12-31T15:48:49,2420,42.8014,5.9826,13.2976,4.59895,2453.641,38.4860
2023-12-31T15:51:49,2420,42.8014,5.9826,13.2979,4.59900,2453.649,38.4862
2023-12-31T15:54:49,2420,42.8014,5.9826,13.2978,4.59898,2453.649,38.4860
2023-12-31T15:57:49,2420,42.8014,5.9826,13.2977,4.59894,2453.627,38.4858
2023-12-31T16:00:49,2420,42.8014,5.9826,13.2975,4.59897,2453.635,38.4862
2023-12-31T16:03:49,2420,42.8014,5.9826,13.2974,4.59901,2453.649,38.4867